Location: ??????
(33.3472°N, 35.4764°E)
Time: 15:25:04
(UTC+00:00)

MSX - Pass Details

Date: 21 August 2019
Orbit: 894 x 907 km, 98.7° (Epoch: 23 October)

Event Time Altitude Azimuth Distance (km) Brightness Sun altitude
Rises 02:21:07 0° 4° (N) 3,538 7.3 -9.4°
Reaches altitude 10° 02:23:38 10° 358° (N) 2,593 6.5 -8.9°
Maximum altitude 02:29:02 43° 289° (WNW) 1,250 4.3 -7.9°
Drops below altitude 10° 02:34:25 10° 219° (SW) 2,574 5.7 -6.8°
Sets 02:36:56 0° 213° (SSW) 3,510 6.4 -6.3°
